Location: Bun Machan
(52.1403°N, 7.3744°W)
Time: 07:18:28
(UTC+00:00)

Cosmos 2369 Rocket - Pass Details

Date: 14 July 2020
Orbit: 830 x 851 km, 71.0° (Epoch: 04 August)

Event Time Altitude Azimuth Distance (km) Brightness Sun altitude
Rises 01:00:48 0° 316° (NW) 3,386 5.9 -16.0°
Reaches altitude 10° 01:04:37 10° 290° (WNW) 2,449 4.8 -16.0°
Maximum altitude 01:07:04 13° 264° (W) 2,232 4.3 -15.9°
Enters shadow 01:09:29 10° 238° (WSW) 2,437 4.2 -15.9°
